Lid_Strength_Index
-1 -1 -1 -1 -1 -1 -1 -0 -0 -1 -0 1 1 1 1 2 2 2 4 4 2 0 -1 -1 -2 -2 -3 -2 -2 -2 -2 -2 -2 -2 -2 -2 -2 -1 -2 -2 -2 -2 -2
-1 -1 -1 -1 -1 -1 -0 -0 -0 -0 0 1 1 1 2 3 3 3 4 5 5 3 1 -0 -1 -2 -3 -3 -3 -3 -2 -1 -1 -1 -1 -1 -1 -1 -1 -1 -1 -1 -1
-1 -1 -1 -1 -0 0 0 0 -0 0 1 1 2 2 3 3 4 5 5 6 5 6 4 1 -0 -2 -2 -3 -2 -2 -1 -1 -0 -1 -1 -1 -1 -0 0 -0 -1 -1 -1
-1 -1 -0 1 1 1 1 0 0 2 1 1 2 2 3 4 5 6 7 7 7 6 6 4 2 0 -1 -1 -1 -1 -1 -1 0 0 0 0 0 -0 -1 -1 -2 -1 -1
1 0 2 2 2 1 1 1 1 2 2 2 3 3 3 5 6 7 8 8 7 7 6 5 5 3 2 1 -0 -0 -0 0 1 1 1 1 0 -0 -1 -2 -2 -2 -2
2 2 2 2 2 3 2 1 2 2 2 3 4 5 5 5 6 7 7 8 7 7 6 6 5 6 4 3 2 1 1 1 1 1 0 0 1 -1 -2 -2 -2 -2 -1
3 3 3 4 4 4 4 1 2 3 3 3 4 5 6 7 7 7 6 7 7 7 7 7 7 6 6 5 4 3 2 2 2 1 1 1 1 -1 -2 -2 -2 -2 -2
5 4 4 5 6 6 5 3 2 3 3 3 4 4 6 7 7 7 7 7 7 7 8 8 8 8 7 7 6 4 3 2 1 1 2 2 1 -1 -1 -2 -2 -2 -2
6 5 6 6 7 7 7 5 3 3 4 4 4 4 6 6 6 7 7 7 7 7 8 8 9 9 8 8 7 6 5 4 3 3 2 3 2 1 0 -1 -1 -1 -1
7 7 7 7 7 7 7 7 6 5 4 6 6 6 4 4 7 8 7 7 7 8 8 9 9 9 9 9 8 7 6 5 4 4 4 3 3 2 1 1 1 1 1
8 8 8 8 8 8 8 7 7 7 7 6 6 7 6 6 6 6 8 8 8 8 9 9 9 9 10 9 9 8 7 5 5 5 5 4 4 3 3 2 2 2 2
9 9 9 8 8 8 8 8 8 8 8 8 8 8 7 8 8 8 7 7 8 9 9 9 10 10 10 9 10 10 8 6 6 6 6 5 5 5 4 4 3 3 3
9 9 9 9 9 9 9 9 9 9 9 9 9 10 9 10 9 8 8 8 8 9 10 10 10 10 10 10 11 11 10 8 6 7 6 6 6 6 5 5 4 4 4
9 9 9 9 10 10 10 9 10 10 9 9 10 9 10 10 9 8 9 9 10 9 9 9 10 10 10 11 12 11 10 10 7 8 7 7 7 7 7 6 6 6 5
9 10 9 10 10 10 10 10 10 10 10 9 10 9 10 10 9 9 9 10 10 11 10 10 10 10 10 10 12 11 11 11 9 9 9 8 8 8 8 7 7 6 6
10 10 10 10 10 10 10 10 10 10 10 10 10 10 10 10 10 10 10 11 11 11 12 10 11 11 11 11 11 12 12 12 11 11 10 10 9 9 9 8 8 8 7
10 10 11 11 11 11 11 10 10 10 11 10 10 10 10 10 11 11 11 11 12 11 12 11 11 11 11 11 12 12 12 12 12 11 11 11 10 10 10 9 9 9 8
10 11 11 11 11 11 11 11 11 11 11 11 11 10 11 11 11 11 12 12 12 12 13 13 11 11 12 11 12 13 13 14 13 13 12 11 11 11 10 10 10 10 10
11 11 11 11 11 11 11 11 10 11 11 10 10 11 11 12 12 12 12 12 12 13 13 13 12 11 11 12 13 13 14 14 14 14 13 12 11 11 11 10 10 11 11
11 11 11 11 11 11 11 11 11 11 10 10 10 11 11 12 12 12 13 13 13 13 13 13 12 12 13 13 14 15 15 14 14 14 14 14 13 12 12 11 12 12 12
11 11 11 11 11 11 11 11 11 11 11 11 12 12 12 12 12 13 13 13 13 14 13 13 13 13 13 14 15 15 16 15 15 15 16 15 15 15 14 13 13 13 12
12 12 12 12 12 11 10 10 10 11 12 12 12 12 13 14 14 13 13 13 13 14 13 12 13 14 14 14 15 15 16 16 17 15 17 17 15 16 15 15 13 12 12
12 12 12 11 12 11 10 10 10 12 12 12 12 13 14 14 13 13 13 13 13 12 12 13 14 14 14 15 15 17 17 17 17 16 18 18 16 17 15 15 14 13 13
13 12 12 12 11 11 10 10 10 12 12 12 13 13 13 14 13 13 13 14 14 14 14 14 14 14 14 15 15 16 16 17 17 17 18 20 17 18 16 16 14 15 13
13 12 12 12 12 11 10 10 10 12 12 13 13 13 13 13 12 12 13 14 15 14 14 14 14 14 14 14 15 17 18 18 18 17 18 19 18 19 18 18 16 15 14
13 13 13 12 12 12 10 10 10 12 12 13 13 13 13 13 12 11 13 15 16 15 15 16 15 15 14 15 15 17 17 19 18 19 18 20 19 20 20 16 17 17 17